Location: Bishopstone
(51.0167°N, 1.9000°W)
Time: 07:33:16
(UTC+00:00)

Cosmos 1674 - Pass Details

Date: 16 September 2019
Orbit: 495 x 520 km, 82.5° (Epoch: 15 October)

Event Time Altitude Azimuth Distance (km) Brightness Sun altitude
Rises 20:26:13 0° 352° (N) 2,606 6.8 -19.6°
Reaches altitude 10° 20:28:22 10° 356° (N) 1,714 5.8 -19.9°
Enters shadow 20:31:59 61° 69° (ENE) 571 2.6 -20.3°
